Back to catalog

BRO-5

AliveScienceSSO
NORAD 51061·PAYLOAD·🇫🇷 France

Launched Jan 13, 2022 from Cape Canaveral Space Force Station

Loading…

Next Passes (next 24 hours)

TLE

FreshSource: Space-Track

Epoch: Sep 14, 2026, 15:30 UTC

1 51061U 22002CF  26257.64600003  .00018004  00000-0  31656-3 0  9997
2 51061  97.2909 332.3027 0005744  13.4986 346.6419 15.50524936260104

Track BRO-5 in real time with AllMySat

Download on the App Store